GFSMW_250_spd_066.txt.gz
Wind_Speed
25 22 18 19 23 24 15 18 34 48 41 55 60 57 50 42 55 56 51 43 41 46 37 38 37 40 37 40 41 38 37 36 42 46 49 47 45 50 51 55 58 59 62
24 21 20 16 20 24 20 15 18 26 48 46 50 62 43 40 48 55 48 51 40 39 42 45 41 42 45 43 41 41 38 45 49 49 53 54 57 59 57 61 59 61 64
23 21 19 17 17 20 22 18 18 20 32 46 45 48 52 43 40 47 50 51 49 47 40 40 40 49 47 46 50 45 48 50 54 58 62 63 62 61 63 62 64 64 68
20 20 19 18 15 16 20 18 17 17 21 39 48 50 50 46 43 44 50 49 51 51 49 43 43 45 50 50 49 51 52 57 61 64 63 65 65 67 66 64 64 67 68
22 18 19 19 18 14 16 20 19 16 16 23 33 52 51 56 46 48 46 51 50 51 51 47 48 49 50 52 56 54 58 63 65 63 67 66 68 69 69 68 68 68 68
24 21 21 19 19 20 15 16 19 19 16 19 23 27 49 59 57 58 48 52 57 54 48 49 51 55 53 55 56 54 55 59 67 68 67 67 70 71 70 68 68 68 71
24 22 22 19 21 19 20 19 14 20 19 11 19 21 26 44 56 59 58 56 52 56 58 56 56 55 54 54 58 58 59 63 64 67 69 72 71 70 69 71 72 72 75
25 24 25 17 20 19 22 20 15 15 17 13 11 20 22 22 37 58 59 63 60 59 60 59 56 55 58 58 60 64 65 68 71 71 70 69 68 71 72 74 72 66 68
30 30 26 21 19 17 18 22 21 15 13 13 13 12 17 24 24 33 59 61 61 63 61 63 62 63 64 65 64 65 67 66 69 68 69 70 71 76 75 73 71 68 67
35 31 26 24 20 19 18 20 23 20 17 14 12 12 11 13 26 28 33 54 66 64 64 65 65 67 67 64 65 64 64 66 69 72 75 73 77 77 76 72 71 70 68
42 37 32 29 30 24 18 20 22 24 26 20 17 16 13 11 11 19 35 34 41 50 56 64 64 64 64 69 72 71 70 72 73 75 77 75 71 67 67 69 69 66 69
43 39 37 31 33 30 25 26 25 21 22 27 26 23 19 16 14 12 13 19 35 43 40 44 46 51 55 61 63 70 75 75 74 76 75 70 71 71 70 70 69 70 67
47 42 38 34 32 31 32 31 25 25 27 26 27 31 27 23 20 20 19 16 17 18 23 35 49 52 49 49 50 52 56 59 62 65 65 67 70 69 71 73 70 65 61
48 45 43 42 40 38 34 35 31 31 30 31 30 31 35 31 30 28 27 25 24 23 23 24 24 26 28 34 42 47 49 48 45 45 44 42 42 41 42 42 43 44 46
50 50 47 47 46 44 38 36 36 36 36 34 35 34 32 39 43 39 36 33 30 31 31 30 31 32 32 35 37 36 36 36 35 34 37 38 40 40 44 45 46 49 51
56 54 52 51 49 47 46 46 45 43 41 40 40 41 40 38 40 44 42 39 39 38 35 40 39 39 39 39 39 39 40 39 39 42 44 45 46 47 48 48 49 51 54
59 59 58 55 50 50 41 45 43 44 45 43 44 45 44 44 46 46 44 50 45 42 43 45 46 47 46 49 49 49 50 49 49 48 50 52 54 55 60 61 60 59 60
61 63 62 59 57 57 58 55 55 51 49 51 52 53 53 54 52 52 50 48 52 53 50 51 51 49 52 53 55 56 53 50 52 53 54 54 55 59 60 62 64 66 67
63 64 64 64 63 61 58 60 57 58 60 60 61 60 58 60 59 58 60 58 55 54 60 62 58 58 61 59 63 64 62 59 60 61 62 62 64 63 65 67 68 70 71
66 66 66 67 68 69 68 69 68 64 65 68 65 66 69 69 62 63 62 61 61 62 62 63 65 68 68 67 67 68 70 69 68 68 70 71 73 73 75 77 78 80 80
69 70 69 69 70 70 71 71 69 69 70 72 72 72 73 70 72 70 69 71 72 70 70 71 69 69 67 69 71 74 74 74 75 74 78 81 80 79 82 85 86 87 90
72 72 71 72 73 73 73 74 76 76 79 78 79 78 79 78 75 76 73 75 75 75 74 75 73 73 72 73 73 75 76 78 73 74 76 79 83 89 91 94 95 97 95
77 79 79 81 80 80 82 84 84 85 84 85 85 84 84 83 81 80 81 83 85 82 77 76 77 75 75 77 78 80 76 71 72 61 80 80 91 95 105 106 108 110 114
91 92 92 93 93 94 94 93 91 92 93 89 88 87 87 86 88 89 89 90 87 82 80 78 80 82 82 81 85 88 83 86 92 91 95 99 103 106 112 109 118 115 112
98 97 96 96 94 94 94 96 94 93 92 87 88 89 88 91 95 95 95 94 92 91 90 88 89 89 87 83 79 82 97 101 104 103 105 105 112 116 118 112 113 105 108
98 100 103 104 102 104 97 93 92 91 92 93 93 92 94 101 102 102 98 101 98 97 95 98 93 102 98 105 100 102 109 106 114 116 118 119 113 116 118 112 103 108 112

GFSMW_250_spd_069.txt.gz
Wind_Speed
23 20 19 19 16 18 18 20 15 27 42 45 52 54 56 66 64 60 65 62 58 53 44 41 36 34 33 31 44 45 47 42 41 43 39 43 45 45 47 50 49 48 52
20 24 19 20 17 18 15 18 15 18 38 46 44 55 55 65 67 71 66 65 65 53 47 52 51 43 42 41 43 42 45 42 40 41 38 48 50 52 57 49 52 54 58
18 14 17 20 15 14 15 14 18 17 21 42 49 46 60 64 64 56 63 61 63 57 53 49 44 40 39 42 43 42 40 40 43 49 47 44 59 65 59 54 57 59 61
23 16 16 17 15 11 14 15 15 17 14 19 33 52 47 64 66 60 57 54 57 67 64 57 51 41 39 41 40 44 47 49 45 48 53 54 57 60 60 58 60 63 63
29 24 18 18 17 14 15 16 16 16 16 15 18 33 53 49 56 63 60 49 49 44 55 55 52 47 45 42 47 48 50 53 55 54 57 58 61 58 60 63 66 68 68
28 29 23 22 17 17 15 16 18 16 18 17 13 21 38 52 50 54 55 50 44 48 49 54 55 54 56 52 50 49 53 56 58 60 60 58 61 61 66 70 69 73 76
30 30 27 25 22 18 15 14 18 17 14 17 14 12 22 32 56 57 57 54 50 49 50 53 52 53 55 56 56 54 52 55 56 59 63 67 70 70 67 67 69 70 74
31 31 30 27 23 21 19 13 14 19 17 13 14 14 12 20 26 41 61 61 59 60 56 54 56 57 56 56 55 56 57 56 60 62 63 65 70 72 72 75 76 78 69
32 30 32 31 28 25 22 15 16 17 18 18 15 15 13 12 17 22 30 47 64 63 62 61 63 60 58 59 60 61 61 62 63 66 70 70 72 76 77 76 72 68 70
35 32 33 33 31 26 25 22 18 16 16 18 19 20 18 14 14 15 25 27 28 56 62 63 63 64 66 64 65 65 64 66 68 67 70 71 74 75 73 74 74 75 76
36 36 36 37 37 30 26 26 25 19 19 22 21 19 24 20 16 15 17 22 29 30 43 62 61 61 65 65 67 67 68 71 72 74 74 74 75 75 76 78 77 77 74
40 38 38 41 41 39 36 28 30 28 24 20 22 22 20 25 25 25 22 17 19 25 36 39 42 47 49 54 60 65 69 68 70 72 72 79 79 78 81 80 75 76 74
45 42 39 40 40 36 35 28 25 28 34 32 26 27 26 23 23 30 30 27 24 22 23 28 35 42 48 51 49 49 51 54 56 56 57 60 62 65 67 67 62 63 66
44 47 44 42 36 32 36 38 32 31 29 33 37 36 32 29 28 27 28 35 35 35 34 32 31 31 32 35 40 47 54 58 58 54 52 52 53 54 56 52 49 46 45
46 47 44 44 43 43 41 39 34 35 35 34 36 40 40 38 37 36 35 32 31 34 42 42 41 39 38 39 38 37 38 40 42 44 46 47 47 48 48 48 50 50 50
48 47 51 48 47 47 46 46 46 46 44 43 44 43 45 47 45 43 39 37 39 41 36 38 45 47 45 45 46 44 45 46 46 49 50 50 51 52 54 55 56 58 59
46 46 46 47 48 49 50 51 51 49 46 46 45 45 42 44 48 45 43 46 48 46 45 46 45 44 51 52 50 52 53 55 55 54 58 59 58 60 62 61 60 61 63
49 51 51 51 50 50 50 52 54 53 52 51 53 54 52 49 50 51 54 55 56 55 55 55 52 52 53 54 59 62 62 60 60 60 61 64 66 66 67 69 70 69 71
53 53 53 55 55 54 54 52 52 55 56 57 55 58 59 56 59 60 61 65 62 58 61 59 58 58 61 59 61 64 65 66 68 68 68 69 69 71 72 73 76 77 78
59 60 59 58 59 59 59 59 60 60 61 60 60 59 61 63 63 65 64 61 63 68 68 66 65 67 67 66 68 71 73 72 73 74 75 75 74 72 72 74 76 80 81
63 65 64 62 63 63 63 64 63 62 63 63 62 61 62 64 65 64 65 68 70 71 75 76 76 75 75 72 73 73 75 76 77 80 83 81 77 76 75 79 83 79 74
72 68 66 63 62 64 65 66 66 66 66 64 64 66 66 66 67 68 71 74 77 77 81 81 80 80 78 76 77 78 80 83 83 83 86 86 83 82 81 85 74 78 79
76 72 74 78 73 70 68 67 71 72 71 71 73 73 75 78 80 82 82 82 83 86 84 81 82 82 83 84 84 86 85 83 82 83 85 86 84 84 85 81 74 73 76
82 79 78 71 72 73 72 76 77 79 77 78 83 88 87 88 90 92 92 92 92 88 90 89 90 87 87 89 87 85 94 90 87 87 89 88 87 88 90 91 91 90 92
77 76 78 79 79 77 80 82 82 84 88 95 96 95 94 96 95 95 93 95 95 92 91 93 96 95 96 97 99 96 94 92 92 95 100 98 101 99 102 102 103 107 109
86 84 85 86 88 90 93 94 96 98 101 99 98 98 97 98 100 101 100 96 94 96 103 107 106 108 108 99 110 113 105 87 105 115 115 113 112 103 98 108 115 115 114

GFSMW_250_spd_072.txt.gz
Wind_Speed
30 28 23 18 18 18 21 16 15 10 17 37 41 43 48 50 45 47 55 56 57 54 55 51 43 37 38 39 29 29 31 39 50 53 52 50 45 42 45 48 46 43 45
30 28 22 19 18 16 18 14 12 11 11 17 37 43 46 50 51 50 50 52 52 56 60 58 51 47 49 41 35 33 32 32 46 53 57 54 47 44 45 47 56 56 55
31 25 18 15 14 12 14 15 14 14 13 13 17 45 48 53 53 50 54 54 54 56 57 60 61 56 53 45 37 38 39 40 43 48 59 56 49 49 50 53 58 62 62
31 25 19 13 12 11 10 13 16 17 17 14 13 21 51 53 51 54 56 54 46 50 51 54 59 58 57 53 46 46 37 39 41 41 48 57 53 50 56 60 62 62 60
35 28 23 17 13 15 13 12 13 15 18 18 16 15 24 52 54 50 58 60 57 53 47 46 54 59 59 59 62 53 49 41 46 45 47 48 54 56 59 60 60 62 63
36 33 31 27 20 18 15 14 14 13 16 18 20 18 12 26 43 57 51 62 61 60 53 51 48 53 51 49 55 61 56 49 49 54 49 52 54 57 61 63 62 64 60
37 35 31 28 28 21 20 18 14 10 13 15 17 21 17 14 23 36 52 50 61 61 66 59 57 53 53 60 55 57 56 54 50 49 52 55 57 61 64 64 64 63 63
33 35 33 29 27 25 23 21 16 13 12 13 15 18 18 18 15 24 36 51 50 64 67 67 62 55 54 53 52 52 57 58 57 55 58 59 58 57 60 64 62 65 69
27 29 28 31 31 27 29 24 21 16 13 10 10 13 18 18 18 16 20 33 47 60 57 58 57 58 54 55 53 53 54 54 55 57 57 58 59 61 64 66 66 69 73
31 31 32 32 32 30 32 27 22 22 17 14 14 13 15 18 20 19 19 18 24 31 40 58 65 66 66 64 61 63 60 60 61 62 62 63 67 68 69 70 72 74 75
38 39 35 33 33 33 34 30 22 23 23 19 16 16 14 15 17 21 22 22 22 21 26 33 37 47 55 63 69 65 62 68 68 68 66 68 72 72 74 76 77 76 76
41 41 38 37 36 35 36 36 32 29 28 28 25 20 19 19 18 18 18 24 25 26 24 22 26 36 36 38 46 56 62 65 69 66 64 66 67 70 74 77 75 74 73
30 37 39 39 38 34 35 38 36 34 31 29 30 31 29 25 24 24 23 22 25 23 29 31 30 28 29 31 38 45 49 51 51 51 53 57 57 58 60 62 65 66 68
42 38 36 39 39 39 38 36 37 37 37 34 32 29 26 27 29 31 32 30 28 27 27 25 30 35 39 40 39 38 38 39 42 47 53 58 59 63 63 61 59 59 56
43 41 40 41 41 43 43 44 42 43 42 41 37 30 31 33 34 34 37 35 39 36 30 31 33 33 32 34 40 44 46 47 46 46 46 47 47 49 52 52 54 55 53
46 45 42 44 44 45 47 47 47 43 43 43 43 42 44 39 39 38 40 41 40 43 42 40 40 42 42 43 42 40 43 48 53 54 55 55 55 57 58 60 61 61 62
46 47 48 43 43 46 49 49 48 48 48 47 46 47 48 47 44 45 45 46 45 44 46 48 47 45 48 48 49 50 46 49 51 51 56 57 58 62 64 65 65 65 66
51 53 52 51 49 48 50 51 51 52 50 50 52 52 52 53 52 51 53 54 53 52 54 55 55 54 55 53 54 57 56 57 54 53 56 59 63 65 67 69 69 72 74
53 52 50 49 50 52 53 52 51 52 52 52 53 55 57 58 56 56 57 60 63 63 61 62 63 61 63 57 59 61 62 61 63 64 64 65 68 71 74 73 74 75 75
56 55 54 53 55 56 57 59 59 59 59 60 60 60 60 58 58 60 62 64 63 67 70 71 69 69 67 63 65 68 70 70 73 72 71 72 70 74 77 78 78 81 81
63 60 57 58 59 59 60 62 63 62 63 63 62 62 62 63 63 65 67 66 67 70 70 73 71 69 69 70 74 72 74 78 79 77 78 79 78 79 79 83 85 87 85
68 65 64 64 64 65 66 66 65 65 67 66 66 66 65 65 65 65 66 66 67 67 67 69 69 73 75 77 76 77 79 82 85 86 86 83 83 83 85 86 90 88 87
68 70 71 70 68 68 67 67 70 72 71 71 71 70 72 70 68 67 66 67 69 72 72 75 84 84 82 80 81 84 85 87 92 92 91 92 90 92 92 90 93 90 94
75 77 77 76 76 74 75 77 79 77 75 76 81 78 74 75 73 73 74 76 77 77 82 89 92 93 88 88 91 92 95 94 92 89 91 96 99 96 96 102 105 99 101
81 79 76 75 76 80 80 80 81 82 85 82 78 77 77 76 80 82 83 83 87 93 96 97 98 95 94 97 99 99 88 100 97 94 97 106 107 106 104 106 110 107 113
83 82 81 82 84 86 87 89 90 92 88 83 83 82 83 82 82 88 92 95 99 102 101 102 103 103 107 106 108 106 102 102 109 111 112 114 111 116 116 115 114 114 116

GFSMW_250_spd_075.txt.gz
Wind_Speed
33 31 28 29 30 23 20 20 19 15 16 12 20 30 31 33 40 39 34 40 53 55 51 48 48 49 48 46 44 38 28 31 33 36 32 43 49 48 45 47 48 48 41
31 30 29 29 28 24 18 17 16 14 14 12 11 15 34 35 36 42 36 38 46 59 52 50 50 52 50 43 41 36 39 35 40 36 32 31 47 53 50 48 51 56 53
33 31 31 31 27 25 18 14 12 12 13 12 12 14 15 39 35 38 34 41 40 50 54 57 56 56 53 51 51 52 45 50 41 34 33 36 37 53 53 56 53 58 60
31 29 30 29 25 24 16 13 10 12 11 11 10 13 13 17 41 39 40 40 42 49 50 57 62 62 58 56 55 56 56 42 45 39 34 35 38 41 51 60 60 55 56
28 29 31 27 24 20 17 16 14 12 10 10 9 9 12 10 20 40 43 46 46 48 53 55 53 53 56 59 61 58 55 58 51 48 36 37 42 46 49 53 60 62 61
34 33 31 31 23 21 18 17 17 14 11 11 10 9 9 10 11 22 37 47 51 47 49 51 47 49 50 51 50 49 51 51 49 46 45 47 49 50 51 51 53 55 62
39 32 36 36 32 30 25 21 21 18 13 10 9 10 9 7 7 9 22 32 45 51 47 52 57 54 54 52 47 46 45 45 48 46 47 51 52 56 57 57 57 57 59
40 37 34 37 34 30 30 27 23 22 18 13 7 5 8 9 7 5 6 15 25 42 53 51 49 51 56 53 52 51 49 49 49 48 48 52 53 56 57 57 58 58 60
40 38 32 34 37 34 31 29 27 24 22 21 13 8 8 9 10 11 8 6 8 17 28 47 49 50 53 52 51 53 53 55 53 51 53 53 49 56 61 60 62 61 60
40 35 33 32 34 34 32 32 31 28 25 25 20 14 11 12 11 10 9 10 10 9 9 16 25 34 47 55 55 56 57 60 57 54 55 56 55 57 59 60 63 64 65
48 46 39 32 31 33 34 34 34 31 28 23 23 19 18 15 14 13 11 8 12 14 14 15 15 17 28 33 38 48 60 62 62 62 61 62 62 60 65 68 68 69 70
50 44 42 38 35 33 32 33 34 32 32 31 26 26 25 23 20 19 18 16 16 17 19 14 19 21 21 19 22 33 38 38 42 50 58 65 67 68 70 70 71 72 73
45 47 46 44 40 37 34 34 34 34 37 37 35 31 30 32 29 26 25 24 23 21 21 23 22 21 22 25 28 29 30 29 29 30 34 41 44 51 55 58 58 58 58
38 45 45 46 43 39 36 37 35 36 36 35 36 36 33 35 33 29 30 31 31 29 28 29 29 28 30 30 27 26 27 29 34 35 38 40 42 44 44 45 47 48 48
39 36 36 36 37 39 39 40 41 41 40 40 41 36 35 36 35 34 31 32 34 35 35 34 35 35 37 36 37 34 34 35 34 37 37 38 41 44 48 50 53 54 53
47 41 39 40 39 41 43 45 45 44 44 44 42 41 38 36 36 37 39 42 40 40 42 41 38 39 42 43 45 46 44 42 42 43 42 41 40 45 51 50 51 55 58
54 50 48 46 41 43 44 44 44 46 45 45 46 47 46 46 46 46 46 47 48 48 47 49 48 48 48 47 48 51 53 52 50 51 50 47 47 50 50 52 53 56 57
54 54 55 52 51 49 48 47 49 52 51 50 50 51 51 52 52 51 51 51 54 55 54 55 55 56 57 54 55 57 57 57 59 60 59 55 54 57 58 58 61 63 63
57 61 60 58 57 55 53 51 48 47 50 53 56 58 58 58 58 57 56 57 57 58 60 61 61 62 63 61 62 63 67 67 65 64 63 60 61 65 64 66 69 71 69
63 66 64 61 59 59 58 56 56 56 57 58 59 60 60 61 59 59 61 62 63 63 64 64 64 65 67 67 68 69 71 69 68 69 64 67 68 67 69 70 74 76 75
72 71 72 69 62 61 60 61 61 61 62 63 62 62 63 65 65 64 66 66 67 69 71 71 72 72 74 71 70 73 74 77 78 75 74 75 75 77 75 77 77 80 86
81 75 73 72 68 65 63 63 65 66 68 68 66 65 65 66 68 70 68 70 73 74 77 78 76 76 76 74 72 73 74 74 77 77 79 80 83 81 82 84 85 84 94
81 76 73 71 71 72 70 68 67 68 69 69 69 70 71 73 73 72 72 72 75 73 74 76 80 83 83 77 74 73 76 80 82 84 88 88 89 88 91 94 92 92 94
90 83 77 78 79 81 78 75 75 75 73 72 73 74 74 74 76 78 79 80 78 77 82 86 83 80 81 81 80 80 81 86 86 94 97 99 95 94 96 97 105 103 99
81 82 83 82 80 79 78 77 76 77 76 78 79 80 82 83 83 85 84 84 85 87 89 89 86 85 85 85 84 85 90 92 97 102 101 101 102 105 105 108 115 115 107
82 86 90 91 88 86 86 85 82 81 82 85 86 85 84 85 87 89 91 93 96 96 98 92 90 89 90 92 94 97 99 102 105 108 110 113 116 117 117 117 117 118 118